Time,TemperatureF,DewpointF,PressureIn,WindDirection,WindDirectionDegrees,WindSpeedMPH,WindSpeedGustMPH,Humidity,HourlyPrecipIn,Conditions,Clouds,dailyrainin,SoftwareType,DateUTC
2013-05-20 00:03:00,55.0,55.0,-100.00,SSE,155,1.0,5.0,97,0.13,,,-99.99,,2013-05-20 04:03:00,
2013-05-20 00:13:00,55.0,55.0,-100.00,SSE,155,1.0,6.0,97,0.01,,,-99.99,,2013-05-20 04:13:00,
2013-05-20 00:23:00,55.0,55.0,-100.00,SE,145,1.0,4.0,97,0.01,,,-99.99,,2013-05-20 04:23:00,
2013-05-20 00:33:00,55.0,55.0,-100.00,South,180,1.0,4.0,98,0.01,,,-99.99,,2013-05-20 04:33:00,
2013-05-20 00:42:00,56.0,55.0,-100.00,SSE,150,1.0,4.0,98,0.00,,,-99.99,,2013-05-20 04:42:00,
2013-05-20 00:52:00,56.0,55.0,-100.00,SSW,195,1.0,5.0,98,0.00,,,-99.99,,2013-05-20 04:52:00,
2013-05-20 01:02:00,56.0,55.0,-100.00,SW,215,2.0,7.0,98,0.00,,,-99.99,,2013-05-20 05:02:00,
2013-05-20 01:12:00,56.0,55.0,-100.00,SSE,165,2.0,6.0,98,0.00,,,-99.99,,2013-05-20 05:12:00,
2013-05-20 01:22:00,56.0,55.0,-100.00,South,170,1.0,4.0,98,0.00,,,-99.99,,2013-05-20 05:22:00,
2013-05-20 01:32:00,56.0,55.0,-100.00,SSW,200,2.0,4.0,98,0.00,,,-99.99,,2013-05-20 05:32:00,
2013-05-20 01:42:00,56.0,55.0,-100.00,South,170,1.0,6.0,98,0.01,,,-99.99,,2013-05-20 05:42:00,
2013-05-20 01:51:00,56.0,55.0,-100.00,SSE,150,1.0,5.0,98,0.00,,,-99.99,,2013-05-20 05:51:00,
2013-05-20 02:01:00,56.0,55.0,-100.00,SSW,200,1.0,3.0,98,0.00,,,-99.99,,2013-05-20 06:01:00,
2013-05-20 02:11:00,56.0,55.0,-100.00,SSE,160,1.0,4.0,98,0.00,,,-99.99,,2013-05-20 06:11:00,
2013-05-20 02:21:00,56.0,55.0,-100.00,SSW,205,1.0,4.0,98,0.00,,,-99.99,,2013-05-20 06:21:00,
2013-05-20 02:32:00,56.0,55.0,-100.00,SSW,205,2.0,3.0,98,0.00,,,-99.99,,2013-05-20 06:32:00,
2013-05-20 02:42:00,56.0,55.0,-100.00,East,85,1.0,4.0,98,0.00,,,-99.99,,2013-05-20 06:42:00,
2013-05-20 02:52:00,56.0,55.0,-100.00,NW,315,1.0,2.0,98,0.00,,,-99.99,,2013-05-20 06:52:00,
2013-05-20 03:02:00,56.0,55.0,-100.00,SSW,210,1.0,2.0,98,0.00,,,-99.99,,2013-05-20 07:02:00,
2013-05-20 03:12:00,56.0,55.0,-100.00,SW,215,1.0,2.0,98,0.00,,,-99.99,,2013-05-20 07:12:00,
2013-05-20 03:21:00,56.0,55.0,-100.00,SE,140,1.0,3.0,98,0.00,,,-99.99,,2013-05-20 07:21:00,
2013-05-20 03:32:00,56.0,55.0,-100.00,South,190,1.0,3.0,98,0.00,,,-99.99,,2013-05-20 07:32:00,
2013-05-20 03:42:00,56.0,56.0,-100.00,SSW,200,0.0,3.0,98,0.00,,,-99.99,,2013-05-20 07:42:00,
2013-05-20 03:52:00,56.0,56.0,-100.00,NE,55,1.0,2.0,98,0.00,,,-99.99,,2013-05-20 07:52:00,
2013-05-20 04:01:00,56.0,56.0,-100.00,SW,235,1.0,3.0,98,0.00,,,-99.99,,2013-05-20 08:01:00,
2013-05-20 04:11:00,56.0,56.0,-100.00,WSW,240,0.0,1.0,98,0.00,,,-99.99,,2013-05-20 08:11:00,
2013-05-20 04:21:00,56.0,56.0,-100.00,WNW,290,0.0,3.0,98,0.00,,,-99.99,,2013-05-20 08:21:00,
2013-05-20 04:32:00,56.0,56.0,-100.00,SSW,200,1.0,2.0,98,0.00,,,-99.99,,2013-05-20 08:32:00,
2013-05-20 04:42:00,56.0,56.0,-100.00,SW,220,1.0,3.0,98,0.00,,,-99.99,,2013-05-20 08:42:00,
2013-05-20 04:51:00,56.0,56.0,-100.00,ENE,60,1.0,2.0,98,0.00,,,-99.99,,2013-05-20 08:51:00,
2013-05-20 05:02:00,56.0,56.0,-100.00,SSW,195,1.0,4.0,98,0.00,,,-99.99,,2013-05-20 09:02:00,
2013-05-20 05:12:00,56.0,56.0,-100.00,SW,220,1.0,3.0,98,0.00,,,-99.99,,2013-05-20 09:12:00,
2013-05-20 05:21:00,56.0,56.0,-100.00,WNW,300,0.0,2.0,98,0.00,,,-99.99,,2013-05-20 09:21:00,
2013-05-20 05:33:00,56.0,56.0,-100.00,SSE,150,1.0,4.0,98,0.00,,,-99.99,,2013-05-20 09:33:00,
2013-05-20 05:43:00,56.0,56.0,-100.00,SSE,150,0.0,2.0,98,0.00,,,-99.99,,2013-05-20 09:43:00,
2013-05-20 05:52:00,56.0,56.0,-100.00,SE,140,1.0,2.0,98,0.00,,,-99.99,,2013-05-20 09:52:00,
2013-05-20 06:03:00,57.0,56.0,-100.00,WSW,255,1.0,1.0,98,0.00,,,-99.99,,2013-05-20 10:03:00,
2013-05-20 06:12:00,57.0,56.0,-100.00,SW,225,1.0,3.0,98,0.00,,,-99.99,,2013-05-20 10:12:00,
2013-05-20 06:22:00,57.0,56.0,-100.00,WSW,250,1.0,4.0,98,0.00,,,-99.99,,2013-05-20 10:22:00,
2013-05-20 06:33:00,57.0,56.0,-100.00,SW,215,1.0,2.0,98,0.00,,,-99.99,,2013-05-20 10:33:00,
2013-05-20 06:42:00,57.0,56.0,-100.00,SSW,210,2.0,4.0,98,0.00,,,-99.99,,2013-05-20 10:42:00,
2013-05-20 06:52:00,57.0,57.0,-100.00,SW,225,1.0,6.0,98,0.00,,,-99.99,,2013-05-20 10:52:00,
2013-05-20 07:02:00,57.0,57.0,-100.00,SW,215,3.0,6.0,98,0.00,,,-99.99,,2013-05-20 11:02:00,
2013-05-20 07:12:00,58.0,57.0,-100.00,SW,230,2.0,6.0,98,0.00,,,-99.99,,2013-05-20 11:12:00,
2013-05-20 07:21:00,58.0,57.0,-100.00,NNE,20,1.0,6.0,98,0.00,,,-99.99,,2013-05-20 11:21:00,
2013-05-20 07:32:00,58.0,57.0,-100.00,SW,230,2.0,4.0,98,0.00,,,-99.99,,2013-05-20 11:32:00,
2013-05-20 07:42:00,58.0,58.0,-100.00,SW,230,2.0,3.0,98,0.00,,,-99.99,,2013-05-20 11:42:00,
2013-05-20 07:51:00,59.0,58.0,-100.00,NE,50,1.0,4.0,98,0.00,,,-99.99,,2013-05-20 11:51:00,
2013-05-20 08:01:00,59.0,58.0,-100.00,West,260,1.0,4.0,98,0.00,,,-99.99,,2013-05-20 12:01:00,
2013-05-20 08:11:00,59.0,59.0,-100.00,SSW,210,1.0,4.0,98,0.00,,,-99.99,,2013-05-20 12:11:00,
2013-05-20 08:21:00,60.0,59.0,-100.00,SW,230,1.0,3.0,98,0.00,,,-99.99,,2013-05-20 12:21:00,
2013-05-20 08:32:00,60.0,59.0,-100.00,WSW,240,3.0,6.0,98,0.00,,,-99.99,,2013-05-20 12:32:00,
2013-05-20 08:41:00,61.0,60.0,-100.00,SSW,210,1.0,4.0,98,0.00,,,-99.99,,2013-05-20 12:41:00,
2013-05-20 08:52:00,60.0,60.0,-100.00,WSW,250,2.0,5.0,98,0.00,,,-99.99,,2013-05-20 12:52:00,
2013-05-20 09:01:00,60.0,60.0,-100.00,SW,230,3.0,6.0,98,0.00,,,-99.99,,2013-05-20 13:01:00,
2013-05-20 09:11:00,61.0,60.0,-100.00,SW,235,2.0,5.0,98,0.00,,,-99.99,,2013-05-20 13:11:00,
2013-05-20 09:22:00,62.0,61.0,-100.00,WSW,240,3.0,7.0,98,0.00,,,-99.99,,2013-05-20 13:22:00,
2013-05-20 09:32:00,62.0,62.0,-100.00,West,280,3.0,6.0,98,0.00,,,-99.99,,2013-05-20 13:32:00,
2013-05-20 09:41:00,62.0,62.0,-100.00,SW,220,1.0,6.0,97,0.00,,,-99.99,,2013-05-20 13:41:00,
2013-05-20 09:52:00,62.0,61.0,-100.00,SW,225,2.0,7.0,95,0.00,,,-99.99,,2013-05-20 13:52:00,
2013-05-20 10:01:00,64.0,62.0,-100.00,SW,235,2.0,5.0,93,0.00,,,-99.99,,2013-05-20 14:01:00,
2013-05-20 10:11:00,64.0,62.0,-100.00,SW,235,1.0,6.0,90,0.00,,,-99.99,,2013-05-20 14:11:00,
2013-05-20 10:22:00,65.0,61.0,-100.00,West,270,4.0,6.0,86,0.00,,,-99.99,,2013-05-20 14:22:00,
2013-05-20 10:32:00,66.0,61.0,-100.00,SE,140,1.0,4.0,85,0.00,,,-99.99,,2013-05-20 14:32:00,
2013-05-20 10:42:00,67.0,61.0,-100.00,SSW,210,1.0,3.0,82,0.00,,,-99.99,,2013-05-20 14:42:00,
2013-05-20 10:52:00,68.0,61.0,-100.00,WNW,285,5.0,9.0,77,0.00,,,-99.99,,2013-05-20 14:52:00,
2013-05-20 11:01:00,69.0,62.0,-100.00,West,280,4.0,9.0,78,0.00,,,-99.99,,2013-05-20 15:01:00,
2013-05-20 11:11:00,69.0,61.0,-100.00,WNW,285,2.0,9.0,75,0.00,,,-99.99,,2013-05-20 15:11:00,
2013-05-20 11:21:00,71.0,62.0,-100.00,West,270,3.0,7.0,74,0.00,,,-99.99,,2013-05-20 15:21:00,
2013-05-20 11:33:00,71.0,61.0,-100.00,West,275,4.0,9.0,71,0.00,,,-99.99,,2013-05-20 15:33:00,
2013-05-20 11:42:00,72.0,61.0,-100.00,WNW,295,2.0,7.0,68,0.00,,,-99.99,,2013-05-20 15:42:00,
2013-05-20 11:53:00,71.0,61.0,-100.00,WSW,245,6.0,11.0,70,0.00,,,-99.99,,2013-05-20 15:53:00,
2013-05-20 12:03:00,71.0,60.0,-100.00,SW,220,4.0,11.0,67,0.00,,,-99.99,,2013-05-20 16:03:00,
2013-05-20 12:13:00,74.0,62.0,-100.00,West,265,2.0,7.0,67,0.00,,,-99.99,,2013-05-20 16:13:00,
2013-05-20 12:22:00,73.0,62.0,-100.00,WNW,290,5.0,11.0,66,0.00,,,-99.99,,2013-05-20 16:22:00,
2013-05-20 12:33:00,74.0,61.0,-100.00,SW,235,4.0,9.0,63,0.00,,,-99.99,,2013-05-20 16:33:00,
2013-05-20 12:42:00,74.0,61.0,-100.00,North,355,4.0,7.0,63,0.00,,,-99.99,,2013-05-20 16:42:00,
2013-05-20 12:52:00,76.0,62.0,-100.00,West,280,1.0,9.0,62,0.00,,,-99.99,,2013-05-20 16:52:00,
2013-05-20 13:02:00,76.0,61.0,-100.00,WSW,255,4.0,7.0,60,0.00,,,-99.99,,2013-05-20 17:02:00,
2013-05-20 13:12:00,76.0,62.0,-100.00,WSW,250,2.0,6.0,61,0.00,,,-99.99,,2013-05-20 17:12:00,
2013-05-20 13:22:00,77.0,63.0,-100.00,WNW,290,2.0,5.0,62,0.00,,,-99.99,,2013-05-20 17:22:00,
2013-05-20 13:33:00,77.0,61.0,-100.00,WSW,240,5.0,10.0,57,0.00,,,-99.99,,2013-05-20 17:33:00,
2013-05-20 13:45:00,77.0,61.0,-100.00,West,270,6.0,11.0,57,0.00,,,-99.99,,2013-05-20 17:45:00,
2013-05-20 13:53:00,77.0,61.0,-100.00,SW,215,2.0,8.0,59,0.00,,,-99.99,,2013-05-20 17:53:00,
2013-05-20 14:02:00,78.0,61.0,-100.00,SW,225,2.0,10.0,55,0.00,,,-99.99,,2013-05-20 18:02:00,
2013-05-20 14:12:00,79.0,62.0,-100.00,West,260,3.0,9.0,55,0.00,,,-99.99,,2013-05-20 18:12:00,
2013-05-20 14:23:00,79.0,62.0,-100.00,WNW,285,3.0,9.0,56,0.00,,,-99.99,,2013-05-20 18:23:00,
2013-05-20 14:33:00,80.0,63.0,-100.00,West,265,2.0,10.0,56,0.00,,,-99.99,,2013-05-20 18:33:00,
2013-05-20 14:42:00,80.0,61.0,-100.00,West,260,4.0,7.0,51,0.00,,,-99.99,,2013-05-20 18:42:00,
2013-05-20 14:55:00,81.0,63.0,-100.00,West,280,1.0,6.0,53,0.00,,,-99.99,,2013-05-20 18:55:00,
2013-05-20 15:04:00,80.0,63.0,-100.00,SSE,165,1.0,9.0,55,0.00,,,-99.99,,2013-05-20 19:04:00,
2013-05-20 15:11:00,80.0,62.0,-100.00,NNW,330,4.0,12.0,54,0.00,,,-99.99,,2013-05-20 19:11:00,
2013-05-20 15:21:00,80.0,62.0,-100.00,North,350,4.0,9.0,54,0.00,,,-99.99,,2013-05-20 19:21:00,
2013-05-20 15:32:00,80.0,64.0,-100.00,WNW,285,2.0,11.0,59,0.00,,,-99.99,,2013-05-20 19:32:00,
2013-05-20 15:41:00,80.0,63.0,-100.00,West,270,3.0,9.0,56,0.00,,,-99.99,,2013-05-20 19:41:00,
2013-05-20 15:52:00,79.0,62.0,-100.00,SW,235,4.0,9.0,55,0.00,,,-99.99,,2013-05-20 19:52:00,
2013-05-20 16:01:00,80.0,63.0,-100.00,West,260,2.0,4.0,56,0.00,,,-99.99,,2013-05-20 20:01:00,
2013-05-20 16:12:00,79.0,62.0,-100.00,West,260,6.0,9.0,56,0.00,,,-99.99,,2013-05-20 20:12:00,
2013-05-20 16:21:00,79.0,62.0,-100.00,NW,305,2.0,7.0,57,0.00,,,-99.99,,2013-05-20 20:21:00,
2013-05-20 16:32:00,80.0,63.0,-100.00,WNW,290,1.0,4.0,56,0.00,,,-99.99,,2013-05-20 20:32:00,
2013-05-20 16:42:00,79.0,63.0,-100.00,SW,225,1.0,6.0,57,0.00,,,-99.99,,2013-05-20 20:42:00,
2013-05-20 16:52:00,79.0,62.0,-100.00,NE,35,1.0,7.0,56,0.00,,,-99.99,,2013-05-20 20:52:00,
2013-05-20 17:01:00,78.0,62.0,-100.00,NNE,30,2.0,7.0,58,0.00,,,-99.99,,2013-05-20 21:01:00,
2013-05-20 17:11:00,79.0,63.0,-100.00,NNE,25,1.0,7.0,57,0.00,,,-99.99,,2013-05-20 21:11:00,
2013-05-20 17:21:00,79.0,62.0,-100.00,North,10,2.0,5.0,56,0.00,,,-99.99,,2013-05-20 21:21:00,
2013-05-20 17:33:00,79.0,63.0,-100.00,North,0,3.0,6.0,58,0.00,,,-99.99,,2013-05-20 21:33:00,
2013-05-20 17:43:00,79.0,62.0,-100.00,North,0,3.0,4.0,56,0.00,,,-99.99,,2013-05-20 21:43:00,
2013-05-20 17:53:00,79.0,62.0,-100.00,NNW,345,2.0,6.0,55,0.00,,,-99.99,,2013-05-20 21:53:00,
2013-05-20 18:02:00,79.0,64.0,-100.00,West,265,2.0,6.0,60,0.00,,,-99.99,,2013-05-20 22:02:00,
2013-05-20 18:12:00,79.0,62.0,-100.00,NE,45,2.0,9.0,57,0.00,,,-99.99,,2013-05-20 22:12:00,
2013-05-20 18:23:00,78.0,63.0,-100.00,NNE,20,2.0,6.0,59,0.00,,,-99.99,,2013-05-20 22:23:00,
2013-05-20 18:33:00,78.0,62.0,-100.00,North,0,2.0,6.0,57,0.00,,,-99.99,,2013-05-20 22:33:00,
2013-05-20 18:42:00,78.0,62.0,-100.00,NNW,330,2.0,6.0,57,0.00,,,-99.99,,2013-05-20 22:42:00,
2013-05-20 18:52:00,77.0,63.0,-100.00,NNE,20,1.0,6.0,61,0.00,,,-99.99,,2013-05-20 22:52:00,
2013-05-20 19:03:00,76.0,63.0,-100.00,NNE,15,1.0,9.0,63,0.00,,,-99.99,,2013-05-20 23:03:00,
2013-05-20 19:12:00,75.0,63.0,-100.00,NNE,30,1.0,6.0,65,0.00,,,-99.99,,2013-05-20 23:12:00,
2013-05-20 19:22:00,75.0,62.0,-100.00,NNE,30,3.0,7.0,64,0.00,,,-99.99,,2013-05-20 23:22:00,
2013-05-20 19:32:00,75.0,62.0,-100.00,NE,35,2.0,6.0,65,0.00,,,-99.99,,2013-05-20 23:32:00,
2013-05-20 19:42:00,74.0,62.0,-100.00,North,10,2.0,6.0,66,0.00,,,-99.99,,2013-05-20 23:42:00,
2013-05-20 19:52:00,74.0,63.0,-100.00,NNE,25,2.0,4.0,68,0.00,,,-99.99,,2013-05-20 23:52:00,
2013-05-20 20:01:00,73.0,62.0,-100.00,NNE,30,1.0,4.0,69,0.00,,,-99.99,,2013-05-21 00:01:00,
2013-05-20 20:11:00,72.0,63.0,-100.00,North,5,1.0,4.0,72,0.00,,,-99.99,,2013-05-21 00:11:00,
2013-05-20 20:21:00,71.0,62.0,-100.00,NNW,340,1.0,3.0,73,0.00,,,-99.99,,2013-05-21 00:21:00,
2013-05-20 20:32:00,71.0,62.0,-100.00,NNW,345,1.0,2.0,74,0.00,,,-99.99,,2013-05-21 00:32:00,
2013-05-20 20:42:00,70.0,62.0,-100.00,North,355,1.0,2.0,75,0.00,,,-99.99,,2013-05-21 00:42:00,
2013-05-20 20:52:00,69.0,62.0,-100.00,NNE,15,1.0,2.0,78,0.00,,,-99.99,,2013-05-21 00:52:00,
2013-05-20 21:01:00,69.0,62.0,-100.00,NNE,15,1.0,2.0,80,0.00,,,-99.99,,2013-05-21 01:01:00,
2013-05-20 21:11:00,68.0,63.0,-100.00,North,350,1.0,4.0,82,0.00,,,-99.99,,2013-05-21 01:11:00,
2013-05-20 21:22:00,67.0,63.0,-100.00,NNW,340,1.0,3.0,83,0.00,,,-99.99,,2013-05-21 01:22:00,
2013-05-20 21:32:00,67.0,62.0,-100.00,NE,45,0.0,2.0,85,0.00,,,-99.99,,2013-05-21 01:32:00,
2013-05-20 21:42:00,66.0,62.0,-100.00,SW,215,0.0,2.0,86,0.00,,,-99.99,,2013-05-21 01:42:00,
2013-05-20 21:52:00,66.0,62.0,-100.00,WSW,245,0.0,1.0,87,0.00,,,-99.99,,2013-05-21 01:52:00,
2013-05-20 22:02:00,65.0,62.0,-100.00,SW,225,1.0,1.0,89,0.00,,,-99.99,,2013-05-21 02:02:00,
2013-05-20 22:11:00,64.0,61.0,-100.00,SSW,205,1.0,1.0,90,0.00,,,-99.99,,2013-05-21 02:11:00,
2013-05-20 22:21:00,64.0,62.0,-100.00,West,280,0.0,1.0,91,0.00,,,-99.99,,2013-05-21 02:21:00,
2013-05-20 22:32:00,64.0,62.0,-100.00,WNW,300,1.0,2.0,92,0.00,,,-99.99,,2013-05-21 02:32:00,
2013-05-20 22:42:00,64.0,62.0,-100.00,South,180,0.0,1.0,92,0.00,,,-99.99,,2013-05-21 02:42:00,
2013-05-20 22:52:00,63.0,61.0,-100.00,SSW,195,0.0,1.0,93,0.00,,,-99.99,,2013-05-21 02:52:00,
2013-05-20 23:02:00,63.0,61.0,-100.00,NNW,330,1.0,2.0,93,0.00,,,-99.99,,2013-05-21 03:02:00,
2013-05-20 23:11:00,62.0,61.0,-100.00,SSW,210,0.0,2.0,94,0.00,,,-99.99,,2013-05-21 03:11:00,
2013-05-20 23:21:00,62.0,61.0,-100.00,WNW,300,0.0,1.0,94,0.00,,,-99.99,,2013-05-21 03:21:00,
2013-05-20 23:33:00,62.0,61.0,-100.00,NW,310,1.0,1.0,95,0.00,,,-99.99,,2013-05-21 03:33:00,
2013-05-20 23:43:00,62.0,61.0,-100.00,North,350,0.0,1.0,95,0.00,,,-99.99,,2013-05-21 03:43:00,
2013-05-20 23:53:00,62.0,61.0,-100.00,ENE,70,0.0,2.0,96,0.00,,,-99.99,,2013-05-21 03:53:00,